Weather in Kayseri

Turkey     38°43′18″N   35°29′14″E
temp.,
°C
wind,
m/s
gust,
m/s
humid.,
%
clouds,
%
prec.,
mm/h
press.,
hPa
HPBL,
m
25 january, tue
tue2500:00−15ese22845 0.0 103315
03:00−15ese228212 0.0 103424
06:00−12e2383100 0.0 103181
09:00−11ene3380100 0.1 1029140
12:00−7nne3371100 0.0 1026322
15:00−5nne3374100 0.0 1022310
18:00−6n2288100 0.0 102041
21:00−6ne2394100 0.6 1020119
26 january, wed
wed2600:00−6ene2387100 0.3 101861
03:00−7nne2296100 1.4 101993
06:00−6ene3494100 1.5 1016121
09:00−7e128993 1.5 101747
12:00−5wnw3394100 0.8 1017351
15:00−5nnw1189100 2.7 1016281
18:00−8nw119693 0.1 101610
21:00−9wsw2396100 0.3 101948
27 january, thu
thu2700:00−8sw2296100 0.6 101865
03:00−7w2296100 1.4 1019168
06:00−8w2296100 0.6 101942
09:00−9wsw2296100 0.8 102360
12:00−7wnw2290100 0.1 1024334
15:00−6w3385100 0.1 1024527
18:00−12ssw229222 0.0 102711
21:00−15se228834 0.0 103110
28 january, fri
fri2800:00−16se118742 0.0 103210
03:00−17se228570 0.0 103311
06:00−17ese228668 0.0 103312
09:00−16e118423 0.0 103436
12:00−10nne22829 0.0 1030261
15:00−7n21786 0.0 1027295
18:00−13e11896 0.0 103010
21:00−16ese22795 0.0 103311
29 january, sat
sat2900:00−16ese22792 0.0 103312
03:00−16ese228012 0.0 103415
06:00−16e22815 0.0 103417
09:00−14ene22816 0.0 103449
12:00−7nne22796 0.0 1031227
15:00−5nne228031 0.0 1029227
18:00−10e128790 0.0 103112
21:00−11ese2281100 0.0 103315